Charleston, SC

1:31 PM EDT on June 26, 2017 (GMT -0400)
Charleston Air Force Base-International

Weather History for KCHS - March, 2013

Change the Weather History Date:

Thursday, March 14, 2013

  Actual Average Record
Temperature  
Mean Temperature 47 °F 58 °F  
Max Temperature 58 °F 69 °F 85 °F (1985)
Min Temperature 35 °F 46 °F 24 °F (1960)
Degree Days  
Heating Degree Days 18 8  
Month to date heating degree days 208 132  
Since 1 July heating degree days 1593 1768  
Cooling Degree Days 0 1  
Month to date cooling degree days 0 12  
Year to date cooling degree days 21 19  
Moisture  
Dew Point 21 °F    
Average Humidity 41    
Maximum Humidity 60    
Minimum Humidity 21    
Precipitation  
Precipitation 0.00 in 0.12 in 1.29 in (1986)
Month to date precipitation 0.07 1.64  
Year to date precipitation 10.89 8.31  
Snow  
Snow 0.00 in 0.00 in - ()
Month to date snowfall 0.0  
Since 1 July snowfall T 0.5  
Snow Depth 0.00 in    
Sea Level Pressure  
Sea Level Pressure 30.23 in    
Wind  
Wind Speed 8 mph (NNW)    
Max Wind Speed 18 mph    
Max Gust Speed 23 mph    
Visibility 10 miles    
Events      
T = Trace of Precipitation, MM = Missing Value Source: NWS Daily Summary

Daily Weather History Graph

Daily Weather History Graph

Search for Another Location

Airport or City:

Trip Planner

Search our weather history database for the weather conditions in past years. The results will help you decide how hot, cold, wet, or windy it might be!

Date:

Astronomy

Mar. 14, 2013 Rise Set
Actual Time 7:31 AM EDT 7:27 PM EDT
Civil Twilight 7:06 AM EDT 7:52 PM EDT
Nautical Twilight 6:38 AM EDT 8:20 PM EDT
Astronomical Twilight 6:09 AM EDT 8:49 PM EDT
Moon 8:55 AM EDT (3/14) 10:29 PM EDT (3/14)
Length of Visible Light 12h 45m
Length of Day
11h 56m
Waxing Crescent, 9% of the Moon is Illuminated
Mar 14
Waxing Crescent
Mar 19
First Quarter
Mar 27
Full
Apr 3
Last Quarter
Apr 10
New

Hourly Weather History & Observations

Time (EDT) Temp. Windchill Dew Point Humidity Pressure Visibility Wind Dir Wind Speed Gust Speed Precip Events Conditions
12:56 AM 48.9 °F - 23.0 °F 36% 30.13 in 10.0 mi NNW 12.7 mph - N/A   Clear
1:56 AM 46.9 °F - 23.0 °F 39% 30.14 in 10.0 mi North 9.2 mph - N/A   Clear
2:56 AM 45.0 °F 39.3 °F 19.9 °F 37% 30.17 in 10.0 mi North 11.5 mph - N/A   Clear
3:56 AM 39.9 °F 34.5 °F 21.0 °F 47% 30.19 in 10.0 mi NNW 8.1 mph - N/A   Clear
4:56 AM 37.0 °F 31.0 °F 23.0 °F 57% 30.19 in 10.0 mi NNW 8.1 mph - N/A   Clear
5:56 AM 39.0 °F 34.0 °F 21.9 °F 50% 30.21 in 10.0 mi North 6.9 mph - N/A   Clear
6:56 AM 39.9 °F 33.4 °F 21.0 °F 47% 30.24 in 10.0 mi North 10.4 mph - N/A   Clear
7:56 AM 37.9 °F 32.1 °F 21.0 °F 51% 30.28 in 10.0 mi North 8.1 mph - N/A   Clear
8:56 AM 41.0 °F 34.3 °F 19.0 °F 41% 30.31 in 10.0 mi NNE 11.5 mph 19.6 mph N/A   Clear
9:56 AM 44.1 °F 36.8 °F 17.1 °F 34% 30.32 in 10.0 mi North 16.1 mph - N/A   Clear
10:56 AM 48.0 °F - 18.0 °F 30% 30.32 in 10.0 mi North 10.4 mph 18.4 mph N/A   Clear
11:56 AM 48.0 °F - 18.0 °F 30% 30.30 in 10.0 mi NNW 13.8 mph 19.6 mph N/A   Clear
12:56 PM 51.1 °F - 19.0 °F 28% 30.28 in 10.0 mi NW 13.8 mph 21.9 mph N/A   Clear
1:56 PM 54.0 °F - 19.0 °F 25% 30.27 in 10.0 mi WNW 13.8 mph 23.0 mph N/A   Clear
2:56 PM 57.0 °F - 19.0 °F 23% 30.25 in 10.0 mi NNW 11.5 mph - N/A   Clear
3:56 PM 55.0 °F - 18.0 °F 23% 30.21 in 10.0 mi Variable 6.9 mph - N/A   Clear
4:56 PM 57.0 °F - 17.1 °F 21% 30.20 in 10.0 mi North 11.5 mph 20.7 mph N/A   Clear
5:56 PM 57.0 °F - 18.0 °F 22% 30.19 in 10.0 mi NW 8.1 mph - N/A   Partly Cloudy
6:56 PM 54.0 °F - 18.0 °F 24% 30.20 in 10.0 mi WNW 8.1 mph - N/A   Partly Cloudy
7:56 PM 52.0 °F - 19.0 °F 27% 30.21 in 10.0 mi West 4.6 mph - N/A   Clear
8:56 PM 48.9 °F - 23.0 °F 36% 30.21 in 10.0 mi WSW 3.5 mph - N/A   Clear
9:56 PM 46.0 °F - 24.1 °F 42% 30.21 in 10.0 mi Calm Calm - N/A   Clear
10:56 PM 42.1 °F - 26.1 °F 53% 30.21 in 10.0 mi Calm Calm - N/A   Clear
11:56 PM 41.0 °F - 28.0 °F 60% 30.23 in 10.0 mi Calm Calm - N/A   Clear